Terminal Aerodrome Forecast
Issued by NWS Caribou, ME

Current Version | Previous Version | Text Only | Print | Product List | Glossary On
Versions: 1 2 3 4 5 6 7 8 9 10 11 12 13 14 15 16 17 18
832 FTUS41 KCAR 071120 TAFBGR TAF KBGR 071120Z 0712/0812 22003KT P6SM SCT060 BKN120 FM071600 28010G18KT P6SM VCSH BKN045 FM071800 31010G18KT P6SM BKN045 FM072000 36010KT P6SM SCT050 FM080000 36005KT P6SM SKC=

USA.gov is the U.S. government's official web portal to all federal, state and local government web resources and services.